Location: Unspecified
(0.0000°N, 0.0000°E)
Time: 05:45:16
(UTC+00:00)

Transit 2A Rocket - Visible Passes

Search period start: 06 December 2016 00:00
Search period end: 16 December 2016 00:00
Orbit: 590 x 914 km, 66.7° (Epoch: 05 December)

Date Brightness Start Highest point End Pass type
(mag) Time Alt. Az. Time Alt. Az. Time Alt. Az.
06 Dec 6.8 19:32:53 10° SW 19:38:18 33° WNW 19:42:58 13° N visible
07 Dec 5.7 18:49:57 10° SSW 18:56:01 66° WNW 19:01:55 10° N visible
08 Dec 5.4 18:07:39 10° S 18:13:44 65° ESE 18:19:38 10° NNE visible
09 Dec 7.6 19:09:19 10° WSW 19:13:47 21° WNW 19:18:10 10° NNW visible
10 Dec 6.6 18:25:48 10° SW 18:31:29 41° WNW 18:37:02 10° N visible
11 Dec 6.4 05:15:01 10° N 05:18:47 30° ENE 05:22:37 10° SE visible
12 Dec 7.3 04:34:33 10° NE 04:36:31 13° ENE 04:38:28 10° E visible
12 Dec 8.0 18:46:37 10° W 18:49:15 13° WNW 18:51:51 10° NW visible
14 Dec 5.1 04:50:00 10° N 04:54:09 56° ENE 04:58:28 10° SSE visible
15 Dec 6.6 04:09:13 13° NNE 04:11:54 23° ENE 04:15:22 10° ESE visible
